Location: Greenhawk Observatory
(37.3417°N, 122.0298°W)
Time: 22:08:05
(UTC-08:00)

Daily predictions for brighter satellites

Satellite Brightness Start Highest point End
(mag) Time Altitude Azimuth Time Altitude Azimuth Time Altitude Azimuth
Cosmos 371 Rocket 3.3 17:13:12 10° N 17:17:58 60° ENE 17:22:42 10° SSE
Cosmos 972 Rocket 4.4 17:14:47 10° N 17:19:22 37° ENE 17:23:55 10° SE
Cosmos 1862 3.3 17:15:58 10° N 17:20:00 88° E 17:24:01 10° S
Cosmos 1862 Rocket 3.9 17:17:18 10° SSE 17:21:29 45° E 17:25:43 10° NNE
Centaur D AC-28 3.8 17:21:48 10° SSW 17:25:19 27° SSE 17:33:56 10° E
Aureole 3 4.0 17:20:59 10° N 17:25:31 68° E 17:31:19 10° SSE
IRAS Rocket 4.4 17:21:17 10° SSE 17:26:51 84° WSW 17:32:25 10° NNW
Cosmos 1763 Rocket 4.3 17:24:41 10° N 17:29:12 29° ENE 17:33:38 10° ESE
Meteor 1-28 Rocket 3.3 17:26:43 10° NNE 17:30:21 51° E 17:33:56 10° S
Cosmos 1782 4.5 17:28:08 10° ESE 17:30:29 15° E 17:32:50 10° NE
Cosmos 1606 4.4 17:28:37 10° ESE 17:30:43 14° E 17:32:49 10° NE
Cosmos 1633 4.5 17:31:00 10° NE 17:32:13 11° ENE 17:33:25 10° E
EO 1 Del DPAF 4.4 17:30:05 10° NE 17:33:14 24° E 17:36:20 10° SSE
CORIOLIS 4.2 17:29:40 10° SSE 17:35:01 62° ENE 17:40:24 10° N
CZ-2C R/B 3.8 17:30:54 10° NNE 17:35:19 57° E 17:39:46 10° S
Cosmos 1816 Rocket 4.5 17:30:40 10° N 17:36:45 62° E 17:42:48 10° SSE
BREEZE M DEB (TANK) 2.6 17:34:57 10° WNW 17:38:13 46° SW 17:40:21 10° SSE
Landsat 4 3.9 17:36:14 10° NNE 17:39:55 50° E 17:43:36 10° S
Cosmos 1725 Rocket 4.2 17:34:22 10° S 17:40:41 83° W 17:46:59 10° N
Cosmos 332 Rocket 4.3 17:36:50 10° NNW 17:41:40 66° WSW 17:46:29 10° S
Ariane Rocket 3.2 17:42:36 10° S 17:47:40 76° WSW 17:52:46 10° NNW
Okean 1-7 4.2 17:45:14 10° SE 17:48:35 22° E 17:51:46 11° NE
Centaur D AC-29 3.6 17:41:49 10° W 17:49:33 25° SSW 17:52:58 10° SSE
Cosmos 1461 3.6 17:45:12 10° NW 17:49:52 69° WSW 17:54:35 10° SSE
ALOS 3.0 17:51:38 10° SE 17:55:39 29° ENE 17:59:40 10° N
Tsikada Rocket 4.1 17:49:52 10° N 17:56:01 80° W 18:02:11 10° S
Cosmos 2082 Rocket 3.4 17:54:03 10° N 17:58:16 21° NE 18:00:07 18° E
COSMO-SKYMED 1 2.7 17:54:07 10° NNE 17:58:23 53° E 18:02:37 10° S
YAOGAN 1 2.5 17:54:10 10° SSE 17:58:27 68° ENE 18:02:46 10° N
Cosmos 1486 Rocket 4.0 17:54:49 10° S 17:59:55 60° ESE 18:05:04 10° NNE
GENESIS II 4.4 17:56:17 10° NNW 18:00:05 45° NE 18:03:50 10° SE
CZ-4 R/B 4.4 17:57:05 10° SSE 18:01:12 67° ENE 18:05:21 10° N
Cosmos 841 Rocket 3.8 17:57:09 10° N 18:02:10 43° ENE 18:07:08 10° SE
Cosmos 2221 Rocket 4.4 17:58:39 10° SSE 18:02:25 28° E 18:04:59 17° NE
SPOT 3 Rocket 3.8 18:01:03 10° SE 18:06:00 47° ENE 18:11:00 10° N
SMAP 4.0 18:02:05 10° S 18:06:35 51° W 18:11:07 10° NNW
MTI 3.8 18:05:28 10° N 18:08:41 78° W 18:11:53 10° SSW
NOAA 12 4.4 18:05:36 10° SE 18:10:38 45° ENE 18:15:41 10° N
USA 234 3.3 18:08:27 13° NE 18:14:23 81° NW 18:20:55 10° SW
Cosmos 1354 Rocket 4.4 18:09:49 10° S 18:14:43 40° ESE 18:17:39 22° NE
COSMOS 2455 3.6 18:11:05 10° SW 18:16:56 52° WNW 18:22:49 10° NNE
CZ-4 R/B 2.5 18:13:12 10° S 18:16:56 44° W 18:20:39 10° NNW
ERS-2 2.1 18:13:32 10° SSE 18:17:12 83° WSW 18:20:54 10° NNW
Meteor 1-14 Rocket 4.2 18:12:57 10° N 18:18:40 87° W 18:24:14 10° S
Cosmos 1703 Rocket 3.5 18:16:03 10° S 18:20:31 78° E 18:25:00 10° N
METEOR-M 4.1 18:15:36 10° SSE 18:20:56 89° WSW 18:26:19 10° NNW
BREEZE-M R/B 3.3 18:24:10 10° NW 18:27:02 38° NE 18:27:11 37° NE
Okean 2 Rocket 4.5 18:23:58 10° NNE 18:34:19 - SSE 18:26:01 23° NNE
Lacrosse 5 4.3 18:29:40 10° NNW 18:30:43 11° NNW 18:31:46 10° N
Cosmos 1464 Rocket 3.8 18:28:41 10° S 18:34:44 69° E 18:40:50 10° NNE
Meteor 1-11 Rocket 4.4 18:33:42 10° N 18:38:02 34° NE 18:38:02 34° NE
ERBS 2.3 18:37:15 10° NW 18:40:30 80° WNW 18:40:30 80° WNW
Thor Agena Rocket 3.6 18:42:52 47° ENE 18:43:28 50° E 18:48:25 10° S
Celestis-02/Orion 38 4.4 18:45:19 38° NE 18:47:18 75° ESE 18:52:29 10° SSW
Sich 1 Rocket 4.4 18:47:23 10° NNW 18:51:41 51° W 18:55:59 10° SSW
Cosmos 2297 3.6 18:46:52 10° SSW 18:52:34 82° ESE 18:54:53 38° NNE
FENGYUN 3A 3.8 18:48:39 10° S 18:54:02 75° WSW 18:59:29 10° NNW
OAO 3 Copernicus 4.3 18:54:21 10° W 18:59:24 67° S 18:59:50 63° SSE
CZ-4C R/B 3.7 18:54:15 10° NNW 18:59:33 30° NNE 18:59:33 30° NNE
Cosmos 2278 Rocket 3.7 18:55:43 10° SW 19:00:50 35° WNW 19:06:01 10° N
Cosmos 1833 Rocket 2.5 18:55:18 10° NNW 19:00:55 67° ENE 19:01:06 66° E
Cosmos 1633 4.1 19:03:55 10° NNW 19:07:18 36° W 19:10:40 10° SSW
MOS 1-B Rocket 4.4 19:10:25 10° SSE 19:17:16 75° ENE 19:25:24 10° N
ALOS 4.4 19:29:13 10° SSW 19:33:01 25° W 19:36:51 10° NW
Cosmos 2082 Rocket 2.9 19:37:10 10° NNW 19:42:04 52° W 19:42:04 52° W
